Погода в Алманчикове

Россия / Чувашская Республика     54°58′54″N   47°46′19″E
темп.,
°C
ветер,
м/с
пор.,
м/с
влажн.,
%
обл.,
%
осадки,
мм/ч
давл.,
гПа
погр.,
м
4 июля, пн
пн400:00+13с3988100 0.0 1012225
03:00+14ссз4880100 0.0 1012258
06:00+13с6118096 0.0 1013773
09:00+16ссв71159100 0.0 10131456
12:00+19ссв794974 0.0 10132054
15:00+19ссв6849100 0.0 10132059
18:00+18ссв466593 0.0 1013420
21:00+13св34845 0.0 101556
5 июля, вт
вт500:00+11ссв229198 0.0 101527
03:00+10с349099 0.0 101752
06:00+13ссв378088 0.0 1017234
09:00+17всв4653100 0.0 1018830
12:00+19всв344842 0.0 10181622
15:00+20с234795 0.0 10181736
18:00+20сз236037 0.0 1018254
21:00+15з22668 0.0 101815
6 июля, ср
ср600:00+13з33755 0.0 101829
03:00+11зсз34840 0.0 101962
06:00+15зсз35755 0.0 1018164
09:00+20зсз345949 0.0 1018572
12:00+23зсз234776 0.0 10181299
15:00+24зсз23445 0.0 10171486
18:00+24з226018 0.0 101660
21:00+17зюз34756 0.0 101743
7 июля, чт
чт700:00+16юз22785 0.0 101721
03:00+15юз33815 0.0 101736
06:00+18юз25767 0.0 1017152
09:00+23юз3464100 0.0 1017589
12:00+26ююз4453100 0.0 10171232
15:00+28ююз445497 0.0 10161558
18:00+24юз25767 0.9 1016191
21:00+20юз23836 1.4 101723
8 июля, пт
пт800:00+19юз228897 0.9 101723
03:00+19юз2291100 1.0 101738
06:00+19зюз249191 2.6 1017123
09:00+24з22725 2.8 1017474
12:00+28зсз23575 0.0 10171360
15:00+29зсз334992 0.0 10161901
18:00+25з22690 0.0 101625
21:00+22з227645 0.1 101618